Location: Voyageurs National Park
(48.5020°N, 92.9292°W)
Time: 20:55:43
(UTC-06:00)

PCSat - Visible Passes

Search period start: 05 February 2016 00:00
Search period end: 15 February 2016 00:00
Orbit: 785 x 796 km, 67.1° (Epoch: 05 February)

Date Brightness Start Highest point End Pass type
(mag) Time Alt. Az. Time Alt. Az. Time Alt. Az.
05 Feb 11.5 17:52:08 10° N 17:54:43 13° NNE 17:57:16 10° NE visible
05 Feb 10.5 19:34:52 10° NNW 19:39:08 33° NNE 19:39:08 33° NNE visible
05 Feb 11.9 21:18:12 10° NW 21:19:52 20° NW 21:19:52 20° NW visible
06 Feb 10.5 19:04:09 10° NNW 19:08:51 28° NE 19:09:31 27° NE visible
06 Feb 11.0 20:47:19 10° NW 20:50:16 33° NW 20:50:16 33° NW visible
07 Feb 10.8 18:33:27 10° NNW 18:37:49 24° NE 18:39:58 19° ENE visible
07 Feb 10.0 20:16:28 10° NW 20:20:43 56° NW 20:20:43 56° NW visible
07 Feb 12.6 22:01:25 10° WNW 22:01:28 10° WNW 22:01:28 10° WNW visible
08 Feb 11.0 18:02:45 10° NNW 18:06:44 20° NNE 18:10:31 11° ENE visible
08 Feb 9.4 19:45:40 10° NNW 19:51:08 71° NE 19:51:17 71° ENE visible
08 Feb 12.0 21:29:59 10° WNW 21:32:02 18° W 21:32:02 18° W visible
09 Feb 9.7 19:14:54 10° NNW 19:20:15 55° NE 19:21:57 39° ESE visible
09 Feb 11.3 20:58:48 10° NW 21:02:43 28° W 21:02:43 28° W visible
10 Feb 9.9 18:44:09 10° NNW 18:49:22 44° NE 18:52:46 20° ESE visible
10 Feb 10.7 20:27:44 10° NW 20:32:43 37° WSW 20:33:33 35° SW visible
11 Feb 10.2 18:13:25 10° NNW 18:18:25 35° NE 18:23:23 10° ESE visible
11 Feb 10.3 19:56:46 10° NW 20:02:01 50° WSW 20:04:35 28° S visible
12 Feb 9.9 19:25:53 10° NW 19:31:17 66° WSW 19:35:51 14° SSE visible
12 Feb 12.4 21:12:33 10° W 21:13:38 11° W 21:14:42 10° WSW visible
13 Feb 9.6 18:55:01 10° NW 19:00:30 86° WSW 19:05:56 10° SSE visible
13 Feb 12.3 20:40:08 10° WNW 20:43:05 15° WSW 20:46:02 10° SW visible
14 Feb 9.5 18:24:13 10° NNW 18:29:41 75° NE 18:35:07 10° SE visible
14 Feb 12.0 20:08:38 10° WNW 20:12:31 20° WSW 20:16:23 10° SSW visible
